(144) Vibilia
ephemeris date magn radius delta ra dec elong phase
Today19 Apr 202413.42.492 AU2.987 AU05h19m+24°41'51.7°18.4°
Opposition28 Feb 202512.53.148 AU2.163 AU11h00m+13°58'172.9°2.2°
(144) Vibilia - 2024-04-19
astro.vanbuitenen.nl


 
-1 year
-1 month
-1 day
Now
+1 day
+1 month
+1 year

The interactive orbit chart above shows the body's path through the solar system and its position at the given date. Green and blue lines are shown perpendicular to the ecliptic plane: Green if the path is above the ecliptic plane, blue if it is below. (Left-click and drag to rotate the view; Right-click and drag to move the view; Use scroll wheel to zoom in our out.)

The orbital elements of Vibilia are:

            e (Eccentricity)                : 0.2359052
            a (Semimajor axis)              : 2.6539927
            i (Inclination)                 : 4.81604
            Ω (Longitude of ascending node) : 76.16175
            ω (Argument of perihelion)      : 294.53824
            M (Mean anomaly)                : 57.58553
            Epoch                           : 2024 Mar 31

            L (Longitude of perihelion)     : 10.77664
            B (Latitude of perihelion)      : -4.38018
            P (Orbital period in years)     : 4.32            
        

The light curve chart below shows the estimated development of the minor planet's magnitude.


The all-sky chart below shows the path of the minor planet over the same period as the light curve. The current position is marked yellow.





The following chart shows the path of the minor planet in the next few days. The field of view is optimized for (~10x50) binoculars and finderscopes. A more printer-friendly version of the same chart can be found below.




Ephemerides:
Date       Time       RA (2000)    DEC (2000)    delta   radius  elong  phase   PA    magn
2024-04-19 00:00 UT   05 19 16.3   +24 41 15     2.987    2.492   51.7   18.4    85   13.4 
2024-04-19 16:38 UT   05 20 31.7   +24 42 54     2.995    2.493   51.3   18.3    85   13.4 
2024-04-20 00:00 UT   05 21 05.1   +24 43 37     2.999    2.494   51.1   18.3    85   13.4 
2024-04-21 00:00 UT   05 22 54.2   +24 45 55     3.012    2.497   50.6   18.1    85   13.4 
2024-04-22 00:00 UT   05 24 43.5   +24 48 08     3.024    2.499   50.0   17.9    85   13.5 
2024-04-23 00:00 UT   05 26 32.9   +24 50 16     3.036    2.502   49.4   17.8    85   13.5 
2024-04-24 00:00 UT   05 28 22.6   +24 52 19     3.049    2.504   48.9   17.6    85   13.5 
2024-04-25 00:00 UT   05 30 12.5   +24 54 17     3.061    2.507   48.3   17.4    86   13.5 
2024-04-26 00:00 UT   05 32 02.6   +24 56 11     3.073    2.510   47.8   17.3    86   13.5 
2024-04-27 00:00 UT   05 33 52.8   +24 57 59     3.085    2.512   47.2   17.1    86   13.5 
2024-04-28 00:00 UT   05 35 43.3   +24 59 42     3.097    2.515   46.7   16.9    86   13.5 
2024-04-29 00:00 UT   05 37 33.9   +25 01 21     3.109    2.517   46.1   16.8    86   13.5 
2024-04-30 00:00 UT   05 39 24.6   +25 02 55     3.120    2.520   45.6   16.6    86   13.5 
2024-05-01 00:00 UT   05 41 15.6   +25 04 23     3.132    2.522   45.0   16.4    86   13.5 
2024-05-02 00:00 UT   05 43 06.6   +25 05 47     3.144    2.525   44.5   16.2    87   13.5 
2024-05-03 00:00 UT   05 44 57.9   +25 07 05     3.155    2.528   43.9   16.1    87   13.5 
2024-05-04 00:00 UT   05 46 49.3   +25 08 19     3.167    2.530   43.4   15.9    87   13.5 
2024-05-05 00:00 UT   05 48 40.8   +25 09 27     3.178    2.533   42.8   15.7    87   13.5 
2024-05-06 00:00 UT   05 50 32.4   +25 10 31     3.189    2.535   42.3   15.5    87   13.5 
2024-05-07 00:00 UT   05 52 24.2   +25 11 29     3.201    2.538   41.7   15.3    87   13.5 
2024-05-08 00:00 UT   05 54 16.1   +25 12 22     3.212    2.540   41.2   15.2    87   13.5 
2024-05-09 00:00 UT   05 56 08.1   +25 13 11     3.223    2.543   40.6   15.0    88   13.5 


    Terminology:
            
    delta:  distance between minor planet and earth in AU
    radius: distance between minor planet and sun in AU
    magn:   magnitude (brightness) estimate    
    ra:     right ascension in hours (24h = 360deg)
    dec:    declination in degrees
    elong:  elongation in degrees (angle sun-earth-minor planet)    
    phase:  phase angle in degrees (angle sun-minor planet-earth)        
    AU:     Astronomical Unit (mean distance between earth and sun: 149597870.7 km
    

Orbital elements provided by the MPC (Minor Planet Center).
Calculations by a modified version of AAPlus, a C# implementation of the AA+ project by PJ Naughter from the algorithms presented in the book "Astronomical Algorithms" by Jean Meeus.
NGC2000 dso catalog and star labels from VizieR as provided by the Strasbourg astronomical Data Center.
Tycho2 catalog from the ESO archive.